Time,TemperatureF,DewpointF,PressureIn,WindDirection,WindDirectionDegrees,WindSpeedMPH,WindSpeedGustMPH,Humidity,HourlyPrecipIn,Conditions,Clouds,dailyrainin,SoftwareType,DateUTC
2013-04-10 00:00:00,50.3,48.0,29.97,ENE,63,0.0,4.0,92,0.00,CLR,FEW,0.00,WeatherDisplay:10.37,2013-04-09 22:00:00,
2013-04-10 00:30:00,50.0,47.5,29.97,ENE,63,0.0,3.0,91,0.00,CLR,FEW,0.00,WeatherDisplay:10.37,2013-04-09 22:30:00,
2013-04-10 01:00:00,49.3,46.5,29.96,East,97,1.0,6.0,90,0.00,CLR,FEW,0.00,WeatherDisplay:10.37,2013-04-09 23:00:00,
2013-04-10 01:30:00,49.8,46.1,29.95,East,97,1.0,3.0,87,0.00,CLR,FEW,0.00,WeatherDisplay:10.37,2013-04-09 23:30:00,
2013-04-10 02:00:00,50.3,46.0,29.95,East,97,1.0,3.0,85,0.00,CLR,FEW,0.00,WeatherDisplay:10.37,2013-04-10 00:00:00,
2013-04-10 02:30:00,50.1,44.8,29.95,East,97,0.0,5.0,82,0.00,CLR,FEW,0.00,WeatherDisplay:10.37,2013-04-10 00:30:00,
2013-04-10 03:00:00,49.8,44.8,29.94,East,97,0.0,3.0,83,0.00,CLR,FEW,0.00,WeatherDisplay:10.37,2013-04-10 01:00:00,
2013-04-10 03:30:00,49.2,44.9,29.94,East,97,0.0,0.0,85,0.00,CLR,FEW,0.00,WeatherDisplay:10.37,2013-04-10 01:30:00,
2013-04-10 04:00:00,49.3,45.6,29.92,East,97,0.0,5.0,87,0.00,CLR,FEW,0.00,WeatherDisplay:10.37,2013-04-10 02:00:00,
2013-04-10 04:30:00,49.8,45.8,29.92,East,97,0.0,6.0,86,0.00,CLR,FEW,0.00,WeatherDisplay:10.37,2013-04-10 02:30:00,
2013-04-10 05:00:00,49.5,44.9,29.92,East,97,0.0,3.0,84,0.00,CLR,FEW,0.00,WeatherDisplay:10.37,2013-04-10 03:00:00,
2013-04-10 05:30:00,48.7,44.4,29.92,East,97,1.0,7.0,85,0.00,CLR,FEW,0.00,WeatherDisplay:10.37,2013-04-10 03:30:00,
2013-04-10 06:00:00,49.2,44.6,29.93,East,97,0.0,6.0,84,0.00,CLR,FEW,0.00,WeatherDisplay:10.37,2013-04-10 04:00:00,
2013-04-10 06:30:00,49.4,45.1,29.93,East,97,0.0,2.0,85,0.00,CLR,FEW,0.00,WeatherDisplay:10.37,2013-04-10 04:30:00,
2013-04-10 07:00:00,50.4,46.1,29.93,East,97,1.0,6.0,85,0.00,CLR,FEW,0.00,WeatherDisplay:10.37,2013-04-10 05:00:00,
2013-04-10 07:30:00,51.1,46.4,29.94,East,97,1.0,5.0,84,0.00,CLR,FEW,0.00,WeatherDisplay:10.37,2013-04-10 05:30:00,
2013-04-10 08:00:00,51.6,46.6,29.95,SE,134,1.0,7.0,83,0.00,CLR,FEW,0.00,WeatherDisplay:10.37,2013-04-10 06:00:00,
2013-04-10 08:30:00,52.5,47.8,29.95,ESE,108,0.0,7.0,84,0.00,CLR,FEW,0.00,WeatherDisplay:10.37,2013-04-10 06:30:00,
2013-04-10 09:00:00,54.2,48.1,29.96,SE,134,2.0,10.0,80,0.00,CLR,FEW,0.00,WeatherDisplay:10.37,2013-04-10 07:00:00,
2013-04-10 09:30:00,54.3,48.3,29.96,SSE,150,0.0,6.0,80,0.00,CLR,FEW,0.00,WeatherDisplay:10.37,2013-04-10 07:30:00,
2013-04-10 10:30:00,55.0,49.6,29.97,SSE,152,2.0,6.0,82,0.00,CLR,FEW,0.00,WeatherDisplay:10.37,2013-04-10 08:30:00,
2013-04-10 11:00:00,56.8,49.7,29.97,South,185,0.0,5.0,77,0.00,CLR,FEW,0.00,WeatherDisplay:10.37,2013-04-10 09:00:00,